Flag for Germany Weather past 2 weeks in Weyhe, Lower Saxony, Germany

Now
52 °F

Partly sunny.


Feels Like: 49 °F
Forecast: 46 / 59 °F
Wind: 9 mph from Northwest

Location: Bremen Airport

Current Time: May 26, 2015 at 12:43:15 PM

Latest Report: May 26, 2015 at 12:20 PM


Visibility: N/A

Pressure: 30.07 "Hg

Humidity: 72%

Dew point: 43 °F

Location of WeyheLocation

Historic Weather in Weyhe — Graph

°F

Weyhe temperature yesterday

Maximum temperature yesterday: 59 °F (at 11:50 AM)
Minimum temperature yesterday: 46 °F (at 12:20 AM)
Average temperature yesterday: 53 °F

Past Weeks' High & Low Weather Summary

 TemperatureHumidityPressure
High75 °F (May 11, 4:50 PM)100% (May 16, 1:50 AM)30.30 "Hg (May 16, 1:50 AM)
Low34 °F (May 16, 5:20 AM)36% (May 11, 6:20 PM)29.59 "Hg (May 18, 7:20 PM)
Average53 °F73%30.02 "Hg
* Reported May 11 11:20 AM — May 26 11:20 AM, Weyhe, Weather by CustomWeather, © 2015

Note: Actual official high and low records may vary slightly from our data, if they occured in-between our weather recording intervals... More about our weather records

Advertising

Weyhe weather history for previous 24 hours

 ConditionsComfort  
Time TempWeatherWind HumidityBarometerVisibility
11:20 AM
Tue, May 26
54 °FScattered clouds.14 mph63%30.04 "HgN/A
10:50 AM54 °FScattered clouds.14 mph67%30.04 "HgN/A
10:20 AM54 °FScattered clouds.14 mph63%30.04 "HgN/A
9:50 AM52 °FBroken clouds.12 mph67%30.04 "HgN/A
9:20 AM52 °FBroken clouds.13 mph67%30.04 "HgN/A
8:50 AM52 °FPartly sunny.10 mph72%30.04 "HgN/A
8:20 AM50 °FScattered clouds.10 mph76%30.04 "HgN/A
7:50 AM50 °FScattered clouds.8 mph82%30.04 "HgN/A
7:20 AM46 °FScattered clouds.7 mph93%30.01 "HgN/A
6:50 AM46 °FScattered clouds.6 mph93%30.01 "HgN/A
6:20 AM45 °FScattered clouds.3 mph93%30.01 "HgN/A
5:50 AM43 °FPassing clouds.5 mph93%30.01 "HgN/A
5:20 AM45 °FPassing clouds.5 mph93%30.01 "HgN/A
4:50 AM46 °FPassing clouds.8 mph93%30.01 "HgN/A
4:20 AM46 °FPassing clouds.7 mph93%30.01 "HgN/A
3:50 AM48 °FPartly cloudy.8 mph87%29.98 "HgN/A
3:20 AM48 °FPassing clouds.8 mph87%29.98 "HgN/A
2:50 AM48 °FPassing clouds.8 mph94%29.98 "HgN/A
2:20 AM48 °FPassing clouds.9 mph94%29.98 "HgN/A
1:50 AM48 °FPassing clouds.9 mph94%29.98 "HgN/A
1:20 AM48 °FClear.8 mph87%29.98 "Hg10 mi
12:50 AM46 °FClear.7 mph93%29.98 "Hg10 mi
12:20 AM48 °FClear.6 mph87%29.98 "Hg10 mi
11:50 PM
Mon, May 25
48 °FPassing clouds.6 mph87%29.98 "HgN/A
11:20 PM50 °FScattered showers. Partly cloudy.3 mph82%29.98 "HgN/A
10:20 PM50 °FSprinkles. Broken clouds.7 mph76%29.98 "HgN/A
9:50 PM52 °FScattered showers. Broken clouds.7 mph67%29.98 "HgN/A
9:20 PM52 °FSprinkles. Broken clouds.7 mph72%29.98 "HgN/A
8:50 PM54 °FSprinkles. Broken clouds.8 mph54%29.95 "HgN/A
8:20 PM55 °FPartly sunny.6 mph51%29.95 "HgN/A
7:50 PM55 °FPartly sunny.8 mph51%29.95 "HgN/A
7:20 PM55 °FPartly sunny.9 mph47%29.95 "HgN/A
6:50 PM57 °FPartly sunny.12 mph44%29.95 "HgN/A
6:20 PM57 °FPartly sunny.12 mph48%29.95 "HgN/A
5:50 PM57 °FPartly sunny.9 mph48%29.95 "HgN/A
5:20 PM57 °FPartly sunny.14 mph44%29.95 "HgN/A
4:50 PM59 °FPartly sunny.13 mph36%29.95 "HgN/A
4:20 PM57 °FPartly sunny.12 mph41%29.95 "HgN/A
3:50 PM57 °FPartly sunny.9 mph51%29.95 "HgN/A
3:20 PM57 °FBroken clouds.9 mph48%29.95 "HgN/A
2:50 PM55 °FPartly sunny.15 mph59%29.95 "HgN/A
2:20 PM55 °FPartly sunny.14 mph59%29.95 "HgN/A
1:50 PM55 °FBroken clouds.15 mph67%29.95 "HgN/A
1:20 PM57 °FBroken clouds.14 mph67%29.95 "HgN/A
12:50 PM57 °FBroken clouds.14 mph67%29.95 "HgN/A
12:20 PM55 °FBroken clouds.15 mph72%29.95 "HgN/A
Weather by CustomWeather, © 2015

See weather overviewHow to use our weather pages